Regional Weather Roundup
Issued by NWS

Home | Current Version | Previous Version | Graphics & Text | Print | Product List | Glossary On
Versions: 1 2 3 4 5 6 7 8 9 10 11 12 13 14 15 16 17 18 19 20 21 22 23 24 25 26 27 28 29 30 31 32 33 34 35 36 37 38 39 40 41 42 43 44 45 46 47 48 49 50
000
ASUS43 KLOT 251112
RWRIL

ILLINOIS REGIONAL WEATHER ROUNDUP
NATIONAL WEATHER SERVICE CHICAGO/ROMEOVILLE IL
600 AM CDT MON MAY 25 2015

NOTE: "FAIR" INDICATES FEW OR NO CLOUDS BELOW 12,000 FEET WITH NO
SIGNIFICANT WEATHER AND/OR OBSTRUCTIONS TO VISIBILITY.

* THESE STATIONS ARE NOT UNDER NWS QUALITY CONTROL. THEY ALSO MAY NOT
  REPORT WEATHER SUCH AS PRECIPITATION OR FOG.

ILZ001-002-007-009-015-016-024-251200-
NORTHWEST ILLINOIS

CITY           SKY/WX    TMP DP  RH WIND       PRES   REMARKS
MOLINE         CLOUDY    65  62  90 SW8       29.79R
STERLING*      CLOUDY    66  64  94 W9        29.79R
SAVANNA*       CLOUDY    67  64  90 SW10G17   29.75R
$$

ILZ003-004-008-010-011-017-018-251200-
NORTH CENTRAL ILLINOIS

CITY           SKY/WX    TMP DP  RH WIND       PRES   REMARKS
ROCKFORD       CLOUDY    67  63  87 S18       29.79S
FREEPORT*      CLOUDY    65  64  93 S22G29    29.77S
ROCHELLE*      CLOUDY    66  64  91 S21       29.80S
DE KALB*       CLOUDY    65  62  90 S20G29    29.82F
PERU*          CLOUDY    68  64  88 S20G28    29.82S
$$

ILZ005-006-012>014-019>023-251200-
NORTHEAST ILLINOIS

CITY           SKY/WX    TMP DP  RH WIND       PRES   REMARKS
CHICAGO-OHARE  CLOUDY    70  62  76 S23G30    29.83S
CHICAGO-MIDWAY CLOUDY    73  63  70 S18G31    29.86R
AURORA         CLOUDY    70  62  76 S22G29    29.83S
LANSING*       CLOUDY    70  62  76 S12G20    29.89R
JOLIET*        CLOUDY    72  65  78 S16G24    29.86S
WAUKEGAN       CLOUDY    70  61  73 S15G23    29.82S
DUPAGE AIRPORT CLOUDY    69  63  81 S23G33    29.83S
KANKAKEE*      CLOUDY    71  65  84 S17G29    29.90R
WHEELING       CLOUDY    71  62  73 S17G31    29.85R
MORRIS*        CLOUDY    70  63  80 S21G28    29.84S
ROMEOVILLE*    CLOUDY    69  62  78 S20G30    29.85S
NORTHERLY ISL    N/A     71  61  70 S14         N/A
$$

LMZ740>746-251200-
SOUTHERN LAKE MICHIGAN

STATION/POSITION SKY/WX   TEMP    WIND        PRES    VSBY  WAVE
                          AIR SEA DIR/SP/G                  HT/PER
                          (F)     (DEG/KT/KT) (MB)    (MI)  (FT/S)
SOUTHERN BUOY              49 38  170/ 14/ 16 1011.3S         1/ 3
HARRISON CRIB              69     180/ 24/ 28   N/A
BURNHAM HARBOR             71     180/ 14/ 24   N/A
CALUMET HARBOR             71     170/ 11/ 19   N/A
BURNS HARBOR               70     180/ 11/ 18 1012.5S
MICHIGAN CITY              72     150/ 13/ 18   N/A
MICHIGAN CITY 6N           66 53  190/ 12/ 16   N/A           1
ST. JOSEPH                 66 54  210/ 14/ 17   N/A           2/ 3
$$

ILZ025>027-034>036-040-047-049-050-058-095>099-251200-
WEST-CENTRAL ILLINOIS

CITY           SKY/WX    TMP DP  RH WIND       PRES   REMARKS
QUINCY         LGT RAIN  64  63  96 SW10      29.85R FOG
GALESBURG*     DRIZZLE   64  63  96 SW8       29.83R
MACOMB*        CLOUDY    65  64  98 SW12      29.85R
JACKSONVILLE*  RAIN      70  66  89 S6        29.86S
PITTSFIELD*    CLOUDY    67  64  87 S9G21     29.87S
$$

ILZ028>032-037-038-041>044-048-051>054-059>061-251200-
CENTRAL ILLINOIS

CITY           SKY/WX    TMP DP  RH WIND       PRES   REMARKS
PONTIAC        CLOUDY    70  66  88 S24G32    29.87S
BLOOMINGTON    CLOUDY    69  66  90 S25G31    29.89S
DECATUR        CLOUDY    70  65  84 S15G22    29.91R
PEORIA         LGT RAIN  70  65  84 S15G24    29.83R
LACON*         CLOUDY    69  63  82 S15G23    29.82R
LINCOLN*       CLOUDY    70  65  84 S13G21    29.86R
SPRINGFIELD    MOCLDY    69  65  86 S16G25    29.88R
TAYLORVILLE    CLOUDY    68  64  88 S17G24    29.91S
$$

ILZ033-039-045-046-055>057-062-063-251200-
EAST-CENTRAL ILLINOIS

CITY           SKY/WX    TMP DP  RH WIND       PRES   REMARKS
CHAMPAIGN      LGT RAIN  69  66  90 S20       29.92S
DANVILLE*      CLOUDY    71  65  81 S15G24    29.92R
RANTOUL*       CLOUDY    72  67  85 S16G24    29.92R
MATTOON        LGT RAIN  68  66  93 S13       29.94R
PARIS*         LGT RAIN  69  66  92 S17G29    29.98R
$$

ILZ079-100>102-251200-
SOUTHWEST ILLINOIS

CITY           SKY/WX    TMP DP  RH WIND       PRES   REMARKS
ALTON          CLOUDY    69  69 100 S16       29.93R
BELLEVILLE     CLOUDY    70  68  94 S14G22    29.93S
CAHOKIA*       MOCLDY    70  65  84 S8        29.93R
SPARTA*        CLOUDY    68  66  94 S10G16    29.97R
$$

ILZ064>066-069>071-074>076-080>082-084>086-088>090-092>094-251200-
SOUTH-CENTRAL ILLINOIS

CITY           SKY/WX    TMP DP  RH WIND       PRES   REMARKS
CARBONDALE     CLOUDY    69  65  86 S16G22    30.00R
CAIRO*         DRIZZLE   67  67  97 S10       30.02S
EFFINGHAM*     DRIZZLE   69  65  88 SE10G17   29.98R
MARION         CLOUDY    70  66  88 S12G18    30.02R
MT. VERNON     CLOUDY    70  63  78 S12G18    30.00R
CENTRALIA*     CLOUDY    68  65  92 S14G22    29.97R
SALEM*         CLOUDY    71  67  88 S14       29.96S
METROPOLIS*    LGT RAIN  67  67 100 S7        30.03S
$$

ILZ067-068-072-073-078-083-087-091-251200-
SOUTHEAST ILLINOIS

CITY           SKY/WX    TMP DP  RH WIND       PRES   REMARKS
LAWRENCEVILLE  LGT RAIN  69  66  90 S14G26    30.02R
FLORA*         LGT RAIN  68  66  93 S15       29.99S
FAIRFIELD*     LGT RAIN  68  67  95 S13       30.00R
HARRISBURG*    LGT RAIN  68  67  98 S9        30.03S
ROBINSON*      LGT RAIN  68  66  92 S17       30.01R
CARMI*         RAIN      68  63  83 S13G18    30.03R
$$

ABBREVIATIONS USED IN REMARKS
   TC - TEMPERATURE IN CELSIUS
  WCI - WIND CHILL INDEX
   HX - HEAT INDEX
  VSB - VISIBILITY
$$




USA.gov is the U.S. government's official web portal to all federal, state and local government web resources and services.